DW1886 Weather Reports


time (UTC)temp
C
wind
direction
speed
KPH
gust
KPH
rain 1hr
cm
rain 24hr
cm
rain mn
cm
humidity
%
barometer
mb
20260509013538 14 331 0.0 3.2 0.00 0.03 0.03 79 1010.2
20260509012759 14 183 1.6 6.4 0.00 0.03 0.03 77 1010.2
20260509012257 14 70 1.6 6.4 0.00 0.03 0.03 76 1010.0
20260509011756 14 0 1.6 4.8 0.00 0.03 0.03 78 1010.2
20260509011243 14 235 3.2 6.4 0.00 0.03 0.03 75 1010.1
20260509011008 14 302 3.2 6.4 0.00 0.03 0.03 75 1010.0
20260509010516 14 35 3.2 8.0 0.00 0.03 0.03 78 1010.0
20260509010004 13 26 3.2 8.0 0.00 0.03 0.03 79 1009.9
20260509005504 13 60 3.2 4.8 0.00 0.03 0.03 86 1009.6
20260509005009 13 73 3.2 4.8 0.00 0.03 0.03 85 1009.5
20260509004238 13 76 3.2 4.8 0.00 0.03 0.03 86 1009.4
20260509003736 14 67 1.6 3.2 0.00 0.03 0.03 85 1009.4
20260509003232 14 49 1.6 3.2 0.00 0.03 0.03 84 1009.5
20260509002732 14 33 1.6 3.2 0.00 0.03 0.03 85 1009.5
20260509002228 14 2 1.6 4.8 0.00 0.03 0.03 84 1009.5
20260509001728 14 52 1.6 4.8 0.00 0.03 0.03 82 1009.5
20260509001230 14 84 1.6 3.2 0.00 0.03 0.03 83 1009.5
20260509000954 14 67 3.2 3.2 0.00 0.03 0.03 82 1009.5
20260509000230 14 67 1.6 3.2 0.03 0.03 0.03 82 1009.5
20260509000000 15 0 1.6 3.2 0.03 0.03 0.03 81 1009.5
20260508235232 15 30 1.6 3.2 0.03 0.03 0.03 80 1009.5
20260508234733 15 50 1.6 3.2 0.03 0.03 0.03 80 1009.5
20260508234233 15 60 1.6 3.2 0.03 0.03 0.03 80 1009.5
20260508233729 15 103 1.6 3.2 0.03 0.03 0.03 79 1009.5
20260508233230 15 24 1.6 3.2 0.03 0.03 0.03 78 1009.6
20260508232725 15 342 1.6 3.2 0.03 0.03 0.03 77 1009.6
20260508232223 15 12 1.6 3.2 0.03 0.03 0.03 76 1009.6
20260508231722 15 6 3.2 3.2 0.03 0.03 0.03 75 1009.7
20260508231215 16 2 1.6 3.2 0.00 0.00 0.00 74 1009.6
20260508230716 16 359 0.0 3.2 0.00 0.00 0.00 72 1009.5
20260508230443 16 0 1.6 3.2 0.00 0.00 0.00 71 1009.7
20260508225716 16 0 1.6 3.2 0.00 0.00 0.00 69 1009.7
20260508225205 16 359 0.0 3.2 0.00 0.00 0.00 66 1009.7
20260508224925 17 357 0.0 1.6 0.00 0.00 0.00 65 1009.4
20260508224201 17 0 0.0 1.6 0.00 0.00 0.00 61 1009.6
20260508223920 17 0 0.0 1.6 0.00 0.00 0.00 62 1009.5
20260508223201 17 0 0.0 1.6 0.00 0.00 0.00 60 1009.6
20260508222700 17 0 0.0 1.6 0.00 0.00 0.00 59 1009.8
20260508222158 17 0 0.0 1.6 0.00 0.00 0.00 57 1009.9
20260508221657 17 0 1.6 3.2 0.00 0.00 0.00 57 1009.7
20260508221157 17 3 1.6 3.2 0.00 0.00 0.00 55 1009.8
20260508220658 17 0 1.6 3.2 0.00 0.00 0.00 53 1010.1
20260508220157 17 337 1.6 3.2 0.00 0.00 0.00 57 1009.7
20260508215657 17 322 1.6 3.2 0.00 0.00 0.00 53 1009.9
20260508215156 17 330 1.6 3.2 0.00 0.00 0.00 53 1009.7
20260508214655 18 0 1.6 3.2 0.00 0.00 0.00 53 1009.8
20260508214153 18 308 0.0 3.2 0.00 0.00 0.00 51 1009.9
20260508213923 18 0 0.0 3.2 0.00 0.00 0.00 53 1009.8
20260508213150 18 358 1.6 6.4 0.00 0.00 0.00 50 1010.0
20260508212650 18 303 1.6 8.0 0.00 0.00 0.00 48 1010.1
20260508212150 18 313 1.6 8.0 0.00 0.00 0.00 49 1010.4
20260508211649 18 302 0.0 4.8 0.00 0.00 0.00 55 1010.0
20260508211151 18 0 0.0 3.2 0.00 0.00 0.00 52 1010.0
20260508210650 18 0 0.0 4.8 0.00 0.00 0.00 50 1010.4
20260508210151 18 350 1.6 8.0 0.00 0.00 0.00 49 1010.2
20260508205916 18 244 3.2 8.0 0.00 0.00 0.00 49 1010.5
20260508205150 18 263 3.2 6.4 0.00 0.00 0.00 46 1010.9
20260508204647 18 282 1.6 6.4 0.00 0.00 0.00 49 1010.5
20260508204147 18 169 1.6 9.7 0.00 0.00 0.00 48 1010.6
20260508203911 18 169 3.2 9.7 0.00 0.00 0.00 45 1010.9
20260508203149 18 0 3.2 9.7 0.00 0.00 0.00 46 1010.7
20260508202648 18 242 3.2 8.0 0.00 0.00 0.00 47 1011.1
20260508202148 18 307 3.2 8.0 0.00 0.00 0.00 47 1011.2
20260508201647 18 251 3.2 8.0 0.00 0.00 0.00 47 1010.9
20260508201148 18 259 3.2 8.0 0.00 0.00 0.00 46 1011.3
20260508200648 18 280 3.2 9.7 0.00 0.00 0.00 45 1011.2
20260508200633 18 0 3.2 11.3 0.00 0.00 0.00 44 1011.5
20260508195644 18 274 3.2 11.3 0.00 0.00 0.00 41 1011.5
20260508195143 18 273 3.2 9.7 0.00 0.00 0.00 46 1011.3
20260508194646 19 271 4.8 9.7 0.00 0.00 0.00 45 1011.6
20260508194143 19 266 3.2 9.7 0.00 0.00 0.00 41 1011.8
20260508193644 20 298 1.6 6.4 0.00 0.00 0.00 46 1011.3
20260508193143 20 61 1.6 6.4 0.00 0.00 0.00 48 1011.0
20260508192642 20 21 3.2 11.3 0.00 0.00 0.00 41 1011.9
20260508192143 20 233 3.2 11.3 0.00 0.00 0.00 45 1011.7
20260508191643 20 276 4.8 12.9 0.00 0.00 0.00 42 1011.9
20260508191403 20 264 6.4 14.5 0.00 0.00 0.00 42 1011.9
20260508190641 21 264 4.8 14.5 0.00 0.00 0.00 43 1011.6
20260508190143 21 299 3.2 14.5 0.00 0.00 0.00 38 1012.5
20260508185640 21 220 3.2 9.7 0.00 0.00 0.00 44 1012.1
20260508185140 20 185 3.2 16.1 0.00 0.00 0.00 45 1011.9
20260508184904 21 192 4.8 16.1 0.00 0.00 0.00 46 1013.0
20260508184139 21 288 4.8 16.1 0.00 0.00 0.00 41 1012.9
20260508183641 21 160 3.2 8.0 0.00 0.00 0.00 48 1012.0
20260508183140 20 195 3.2 8.0 0.00 0.00 0.00 47 1011.8
20260508182906 20 82 4.8 14.5 0.00 0.00 0.00 49 1012.2
20260508182140 20 254 4.8 14.5 0.00 0.00 0.00 45 1012.5
20260508181641 20 281 3.2 11.3 0.00 0.00 0.00 43 1012.3
20260508181141 20 187 3.2 8.0 0.00 0.00 0.00 43 1013.0
20260508180642 19 202 1.6 8.0 0.00 0.00 0.00 48 1012.4
20260508180141 19 272 1.6 6.4 0.00 0.00 0.00 45 1013.0
20260508175640 19 73 3.2 9.7 0.00 0.00 0.00 46 1012.9
20260508175140 19 293 3.2 9.7 0.00 0.00 0.00 47 1012.4
20260508174640 18 178 1.6 8.0 0.00 0.00 0.00 52 1012.5
20260508174140 18 248 1.6 8.0 0.00 0.00 0.00 50 1013.0
20260508173639 18 152 1.6 6.4 0.00 0.00 0.00 50 1012.9
20260508173141 18 40 3.2 12.9 0.00 0.00 0.00 49 1013.1
20260508172642 18 0 3.2 12.9 0.00 0.00 0.00 52 1012.9
20260508172142 18 279 3.2 9.7 0.00 0.00 0.00 50 1012.9
20260508171642 19 275 3.2 9.7 0.00 0.00 0.00 47 1013.5
20260508171142 20 256 3.2 8.0 0.00 0.00 0.00 49 1013.1
20260508170641 20 160 3.2 11.3 0.00 0.00 0.00 47 1013.7
20260508170141 20 227 3.2 11.3 0.00 0.00 0.00 46 1013.2
20260508165637 20 283 3.2 14.5 0.00 0.00 0.00 49 1013.9
20260508165136 20 200 3.2 14.5 0.00 0.00 0.00 43 1014.0
20260508164637 20 221 4.8 17.7 0.00 0.00 0.00 52 1013.4
20260508164135 20 82 4.8 17.7 0.00 0.00 0.00 46 1013.9
20260508163636 20 263 4.8 11.3 0.00 0.00 0.00 55 1013.4
20260508163353 20 167 3.2 12.9 0.00 0.00 0.00 55 1013.4
20260508162636 20 294 3.2 12.9 0.00 0.00 0.00 54 1013.1
20260508162137 20 286 3.2 14.5 0.00 0.00 0.00 50 1013.3
20260508161637 20 238 4.8 14.5 0.00 0.00 0.00 47 1014.1
20260508161400 19 275 4.8 14.5 0.00 0.00 0.00 50 1013.7
20260508160636 19 291 4.8 12.9 0.00 0.00 0.00 49 1013.9
20260508160134 19 159 3.2 9.7 0.00 0.00 0.00 48 1014.2
20260508155902 19 0 3.2 9.7 0.00 0.00 0.00 49 1014.2
20260508155135 18 247 3.2 11.3 0.00 0.00 0.00 55 1014.0
20260508154636 18 113 3.2 12.9 0.00 0.00 0.00 58 1013.9
20260508154137 18 250 4.8 12.9 0.00 0.00 0.00 54 1014.2
20260508153901 17 268 4.8 12.9 0.00 0.00 0.00 59 1013.8
20260508153136 17 236 6.4 16.1 0.00 0.00 0.00 58 1014.2
20260508152900 17 187 8.0 16.1 0.00 0.00 0.00 52 1014.6
20260508152136 17 259 6.4 14.5 0.00 0.00 0.00 55 1014.3
20260508151637 17 280 4.8 14.5 0.00 0.00 0.00 59 1014.0
20260508151136 17 266 3.2 14.5 0.00 0.00 0.00 50 1014.4
20260508150635 17 205 3.2 14.5 0.00 0.00 0.00 55 1014.0
20260508150135 17 286 3.2 9.7 0.00 0.00 0.00 57 1013.8
20260508145854 16 238 6.4 16.1 0.00 0.00 0.00 61 1014.4
20260508145402 16 283 6.4 16.1 0.00 0.00 0.00 54 1014.4
20260508144850 16 280 6.4 16.1 0.00 0.00 0.00 54 1014.6
20260508144132 16 244 4.8 16.1 0.00 0.00 0.00 54 1014.7
20260508143633 16 237 3.2 12.9 0.00 0.00 0.00 54 1014.8
20260508143618 16 228 3.2 12.9 0.00 0.00 0.00 54 1014.4
20260508142633 16 262 4.8 14.5 0.00 0.00 0.00 55 1014.3
20260508142132 15 344 6.4 14.5 0.00 0.00 0.00 56 1015.0
20260508141632 15 305 4.8 16.1 0.00 0.00 0.00 55 1014.7
20260508141132 15 329 4.8 16.1 0.00 0.00 0.00 57 1014.6
20260508140631 15 239 4.8 14.5 0.00 0.00 0.00 57 1014.8
20260508140356 15 172 6.4 14.5 0.00 0.00 0.00 54 1015.0
20260508135631 15 345 4.8 14.5 0.00 0.00 0.00 55 1014.5
20260508135131 14 0 6.4 14.5 0.00 0.00 0.00 54 1014.9
20260508134626 14 293 4.8 12.9 0.00 0.00 0.00 54 1014.8
20260508134127 14 339 3.2 9.7 0.00 0.00 0.00 57 1014.9
20260508133626 14 0 3.2 9.7 0.00 0.00 0.00 60 1014.7
20260508133351 13 149 3.2 8.0 0.00 0.00 0.00 57 1015.2
20260508132627 13 290 3.2 8.0 0.00 0.00 0.00 60 1014.7
20260508132128 13 290 3.2 9.7 0.00 0.00 0.00 61 1014.7
20260508131627 13 0 1.6 9.7 0.00 0.00 0.00 59 1014.6
20260508131127 13 0 1.6 8.0 0.00 0.00 0.00 59 1014.4
20260508130629 13 0 1.6 6.4 0.00 0.00 0.00 62 1014.4
20260508130126 13 148 1.6 4.8 0.00 0.00 0.00 63 1014.5
20260508125626 13 96 1.6 4.8 0.00 0.00 0.00 60 1014.6
20260508125126 13 72 1.6 4.8 0.00 0.00 0.00 65 1014.4
20260508124626 13 0 1.6 4.8 0.00 0.00 0.00 63 1014.6
20260508124125 12 0 0.0 4.8 0.00 0.00 0.00 61 1014.5
20260508123624 12 201 0.0 3.2 0.00 0.00 0.00 66 1014.6
20260508123123 11 0 0.0 3.2 0.00 0.00 0.00 66 1014.2
20260508122623 11 0 0.0 3.2 0.00 0.00 0.00 70 1014.3
20260508122123 10 0 0.0 3.2 0.00 0.00 0.00 74 1014.2
20260508121620 9 0 0.0 3.2 0.00 0.00 0.00 75 1014.1
20260508121123 8 101 0.0 3.2 0.00 0.00 0.00 77 1014.0
20260508120619 8 0 0.0 3.2 0.00 0.00 0.00 75 1014.0
20260508120116 9 241 0.0 3.2 0.00 0.00 0.00 75 1014.0
20260508115618 8 0 0.0 3.2 0.00 0.00 0.00 76 1013.9
20260508115116 8 0 0.0 3.2 0.00 0.00 0.00 76 1013.9
20260508114611 8 43 0.0 3.2 0.00 0.00 0.00 77 1013.8
20260508114113 8 0 0.0 3.2 0.00 0.00 0.00 80 1013.7
20260508113612 8 54 0.0 1.6 0.00 0.00 0.00 79 1013.7
20260508113111 8 80 0.0 1.6 0.00 0.00 0.00 78 1013.7
20260508112611 8 0 0.0 3.2 0.00 0.00 0.00 78 1013.7
20260508112112 8 0 0.0 3.2 0.00 0.00 0.00 80 1013.6
20260508111840 7 0 0.0 3.2 0.00 0.00 0.00 80 1013.6
20260508111113 7 65 0.0 3.2 0.00 0.00 0.00 79 1013.5
20260508110613 7 0 0.0 1.6 0.00 0.00 0.00 80 1013.5
20260508110113 7 0 0.0 1.6 0.00 0.00 0.00 80 1013.4
20260508105832 7 0 0.0 1.6 0.00 0.00 0.00 82 1013.3
20260508105322 7 56 0.0 3.2 0.00 0.00 0.00 81 1013.3
20260508104551 7 0 0.0 3.2 0.00 0.00 0.00 81 1013.3
20260508104046 7 0 0.0 1.6 0.00 0.00 0.00 85 1013.3
20260508103545 7 0 0.0 1.6 0.00 0.00 0.00 85 1013.3
20260508103045 7 0 0.0 1.6 0.00 0.00 0.00 84 1013.4
20260508102545 7 0 0.0 1.6 0.00 0.00 0.00 83 1013.4
20260508102047 7 0 0.0 1.6 0.00 0.00 0.00 84 1013.4
20260508101544 6 0 0.0 1.6 0.00 0.00 0.00 85 1013.4
20260508101044 6 0 0.0 0.0 0.00 0.00 0.00 84 1013.4
20260508100757 6 0 0.0 3.2 0.00 0.00 0.00 82 1013.4
20260508100637 6 0 0.0 1.6 0.00 0.00 0.00 83 1013.3
20260508095536 6 93 0.0 3.2 0.00 0.00 0.00 83 1013.4
20260508095029 6 0 0.0 3.2 0.00 0.00 0.00 82 1013.4
20260508094759 6 0 0.0 3.2 0.00 0.00 0.00 83 1013.5
20260508094031 6 63 0.0 1.6 0.00 0.00 0.00 83 1013.4
20260508093531 6 0 0.0 1.6 0.00 0.00 0.00 84 1013.5
20260508093033 6 0 0.0 3.2 0.00 0.00 0.00 84 1013.5
20260508092528 6 0 0.0 3.2 0.00 0.00 0.00 84 1013.5
20260508092028 6 244 0.0 0.0 0.00 0.00 0.00 85 1013.4
20260508091526 6 0 0.0 1.6 0.00 0.00 0.00 84 1013.4
20260508091022 6 270 0.0 1.6 0.00 0.00 0.00 84 1013.5
20260508090517 6 0 0.0 3.2 0.00 0.00 0.00 87 1013.4
20260508090019 6 309 0.0 3.2 0.00 0.00 0.00 87 1013.3
20260508085514 6 260 0.0 3.2 0.00 0.00 0.00 87 1013.4
20260508085016 6 70 0.0 3.2 0.00 0.00 0.00 87 1013.3
20260508084515 6 97 0.0 1.6 0.00 0.00 0.00 88 1013.2
20260508084015 5 77 0.0 1.6 0.00 0.00 0.00 87 1013.3
20260508083515 5 19 0.0 3.2 0.00 0.00 0.00 86 1013.3
20260508083016 5 58 0.0 3.2 0.00 0.00 0.00 86 1013.4
20260508082515 5 89 0.0 3.2 0.00 0.00 0.00 86 1013.3
20260508082015 5 0 1.6 3.2 0.00 0.00 0.00 85 1013.3
20260508081516 5 42 1.6 3.2 0.00 0.00 0.00 85 1013.3
20260508081016 5 51 1.6 4.8 0.00 0.00 0.00 84 1013.3
20260508080516 5 78 1.6 4.8 0.00 0.00 0.00 85 1013.3
20260508080005 5 78 1.6 3.2 0.00 0.00 0.00 84 1013.3
20260508075503 5 0 1.6 4.8 0.00 0.00 0.00 84 1013.3
20260508074950 5 80 1.6 4.8 0.00 0.00 0.00 85 1013.2
20260508074448 5 65 1.6 3.2 0.00 0.00 0.00 85 1013.3
20260508073948 5 63 1.6 3.2 0.00 0.00 0.00 84 1013.2
20260508073710 5 76 1.6 4.8 0.00 0.00 0.00 83 1013.2
20260508072947 5 79 1.6 4.8 0.00 0.00 0.00 83 1013.2
20260508072449 5 82 1.6 3.2 0.00 0.00 0.00 83 1013.2
20260508071948 5 87 1.6 3.2 0.00 0.00 0.00 82 1013.3
20260508071447 5 0 0.0 3.2 0.00 0.00 0.00 82 1013.4
20260508070948 5 0 1.6 3.2 0.00 0.00 0.00 82 1013.4
20260508070445 6 20 0.0 3.2 0.00 0.00 0.00 81 1013.4
20260508065945 6 14 1.6 3.2 0.00 0.00 0.00 80 1013.4
20260508065445 6 20 1.6 3.2 0.00 0.00 0.00 80 1013.4
20260508064934 6 67 1.6 3.2 0.00 0.00 0.00 80 1013.5
20260508064432 6 0 0.0 3.2 0.00 0.00 0.00 79 1013.7
20260508064155 6 0 1.6 3.2 0.00 0.00 0.00 79 1013.7
20260508063651 6 66 1.6 3.2 0.00 0.00 0.00 79 1013.8
20260508062932 6 79 1.6 3.2 0.00 0.00 0.00 79 1013.9
20260508062432 6 88 1.6 3.2 0.00 0.00 0.00 79 1013.9
20260508061933 6 76 1.6 3.2 0.00 0.00 0.00 80 1013.9
20260508061432 6 72 0.0 3.2 0.00 0.00 0.00 80 1013.9
20260508060932 6 0 0.0 3.2 0.00 0.00 0.00 79 1013.9
20260508060431 6 95 1.6 3.2 0.00 0.00 0.00 79 1013.9
20260508055927 6 0 0.0 3.2 0.00 0.00 0.00 79 1013.8
20260508055425 6 310 1.6 3.2 0.00 0.00 0.00 80 1013.8
20260508054918 6 77 1.6 3.2 0.00 0.00 0.00 80 1013.8
20260508054418 6 59 1.6 4.8 0.00 0.00 0.00 79 1013.9
20260508053917 6 80 1.6 4.8 0.00 0.00 0.00 78 1013.9
20260508053417 6 0 0.0 3.2 0.00 0.00 0.00 77 1014.0
20260508052918 6 0 0.0 3.2 0.00 0.00 0.00 77 1013.9
20260508052909 6 0 0.0 3.2 0.00 0.00 0.00 77 1013.9
20260508051917 6 0 0.0 1.6 0.00 0.00 0.00 75 1013.9
20260508051414 6 63 0.0 1.6 0.00 0.00 0.00 75 1013.9
20260508050913 7 0 0.0 3.2 0.00 0.00 0.00 74 1013.9
20260508050406 7 0 1.6 3.2 0.00 0.00 0.00 74 1013.9
20260508050127 7 23 1.6 3.2 0.00 0.00 0.00 73 1014.0
20260508045614 7 59 0.0 1.6 0.00 0.00 0.00 72 1014.0
20260508044850 7 72 0.0 1.6 0.00 0.00 0.00 72 1014.0
20260508044350 7 0 0.0 3.2 0.00 0.00 0.00 71 1014.0
20260508043850 7 0 1.6 3.2 0.00 0.00 0.00 72 1014.0
20260508043352 7 79 0.0 3.2 0.00 0.00 0.00 72 1013.9
20260508042852 7 0 0.0 3.2 0.00 0.00 0.00 72 1013.9
20260508042619 7 0 0.0 3.2 0.00 0.00 0.00 73 1013.8
20260508041851 7 92 1.6 3.2 0.00 0.00 0.00 72 1013.8
20260508041347 7 86 1.6 3.2 0.00 0.00 0.00 72 1013.8
20260508040848 7 72 0.0 1.6 0.00 0.00 0.00 72 1013.9
20260508040348 7 0 1.6 3.2 0.00 0.00 0.00 72 1013.8
20260508035848 7 0 1.6 3.2 0.00 0.00 0.00 73 1013.7
20260508035603 7 103 1.6 3.2 0.00 0.00 0.00 73 1013.7
20260508034835 7 97 1.6 3.2 0.00 0.00 0.00 73 1013.8
20260508034600 7 0 0.0 3.2 0.00 0.00 0.00 72 1013.8
20260508033835 7 0 1.6 3.2 0.00 0.00 0.00 72 1013.8
20260508033335 7 88 1.6 3.2 0.00 0.00 0.00 73 1013.8
20260508033317 7 0 1.6 3.2 0.00 0.00 0.00 71 1013.9
20260508032336 7 80 1.6 3.2 0.00 0.00 0.00 72 1013.9
20260508031836 7 91 0.0 3.2 0.00 0.00 0.00 70 1013.9
20260508031333 7 0 0.0 3.2 0.00 0.00 0.00 70 1014.0
20260508030832 7 0 0.0 3.2 0.00 0.00 0.00 71 1013.9
20260508030331 7 0 0.0 3.2 0.00 0.00 0.00 71 1013.8
20260508030057 7 71 0.0 3.2 0.00 0.00 0.00 74 1013.7
20260508025545 7 49 1.6 3.2 0.00 0.00 0.00 76 1013.5
20260508024826 7 100 1.6 3.2 0.00 0.00 0.00 72 1013.7
20260508024326 7 82 0.0 3.2 0.00 0.00 0.00 72 1013.8
20260508023824 7 76 0.0 3.2 0.00 0.00 0.00 72 1013.8
20260508023324 7 0 0.0 3.2 0.00 0.00 0.00 73 1013.8
20260508022823 7 0 0.0 3.2 0.00 0.00 0.00 72 1013.8
20260508022321 7 13 0.0 3.2 0.00 0.00 0.00 73 1013.7
20260508022045 7 346 1.6 3.2 0.00 0.00 0.00 73 1013.7
20260508021322 7 0 1.6 4.8 0.00 0.00 0.00 75 1013.6
20260508020822 8 75 1.6 4.8 0.00 0.00 0.00 73 1013.7
20260508020322 8 0 0.0 3.2 0.00 0.00 0.00 73 1013.7
20260508015824 8 0 1.6 4.8 0.00 0.00 0.00 74 1013.7
20260508015319 8 60 1.6 4.8 0.00 0.00 0.00 74 1013.6
20260508014818 8 87 1.6 4.8 0.00 0.00 0.00 73 1013.6
20260508014317 8 73 1.6 6.4 0.00 0.00 0.00 73 1013.6
20260508013816 8 0 1.6 6.4 0.00 0.00 0.00 73 1013.6